Total_Precipitation_Accumulation
0.72 0.77 1.12 1.14 1.11 1.13 1.18 1.24 1.30 1.40 1.50 1.74 1.92 2.04 2.13 2.27 2.23 2.12 2.09 2.26 2.51 2.64 2.70 2.66 2.39 2.19 1.98 1.89 1.75 1.52 1.39 1.38 1.36 1.33 1.37 1.47 1.59 1.76 2.07 2.24 2.11 1.57 1.55
0.44 0.60 0.94 1.01 1.04 1.06 1.00 1.05 1.21 1.31 1.40 1.57 1.80 2.04 2.04 2.10 2.02 1.97 2.00 2.18 2.36 2.40 2.41 2.27 2.07 1.88 1.70 1.60 1.44 1.24 1.24 1.36 1.59 1.68 1.71 1.58 1.67 1.89 2.07 1.96 2.12 1.62 1.46
0.38 0.50 0.69 0.90 0.95 0.91 0.86 0.99 1.16 1.20 1.31 1.49 1.70 1.95 1.94 1.93 1.93 1.89 1.93 2.09 2.19 2.17 2.07 1.94 1.80 1.63 1.45 1.29 1.13 1.07 1.15 1.38 1.77 2.02 2.06 1.54 1.26 1.67 1.84 1.69 1.57 1.40 1.33
0.39 0.47 0.61 0.74 0.83 0.84 0.86 1.00 1.15 1.24 1.33 1.44 1.52 1.70 1.78 1.83 1.85 1.91 1.96 1.91 1.90 1.81 1.75 1.69 1.55 1.42 1.29 1.10 1.01 1.07 1.23 1.41 1.75 2.14 2.11 1.39 0.91 1.16 1.34 1.27 1.33 1.16 1.10
0.41 0.48 0.63 0.65 0.73 0.82 0.88 1.05 1.13 1.22 1.35 1.39 1.42 1.53 1.67 1.73 1.76 1.86 1.86 1.75 1.70 1.67 1.63 1.54 1.44 1.30 1.12 0.99 0.96 1.07 1.28 1.48 1.83 1.93 1.50 1.36 1.21 1.12 1.06 1.08 1.12 0.95 0.82
0.40 0.44 0.63 0.66 0.68 0.78 0.90 1.00 1.03 1.10 1.22 1.28 1.39 1.45 1.53 1.57 1.63 1.71 1.63 1.57 1.55 1.54 1.47 1.48 1.34 1.13 0.97 0.88 0.90 1.05 1.26 1.56 1.63 1.15 1.05 1.15 1.08 1.07 0.98 1.15 1.06 0.86 0.74
0.46 0.47 0.60 0.69 0.71 0.79 0.84 0.89 0.94 1.01 1.12 1.19 1.36 1.47 1.49 1.46 1.52 1.52 1.47 1.43 1.42 1.38 1.27 1.26 1.15 1.03 0.96 0.91 0.93 1.04 1.26 1.62 1.28 0.89 1.04 1.31 1.15 1.01 1.00 1.21 1.14 0.91 0.74
0.55 0.48 0.51 0.67 0.72 0.78 0.82 0.85 0.94 1.01 1.12 1.18 1.21 1.31 1.28 1.24 1.28 1.27 1.33 1.34 1.32 1.23 1.13 1.13 1.02 0.97 0.93 0.91 0.94 1.03 1.22 1.32 0.86 0.86 0.98 1.09 0.97 0.99 1.03 1.21 1.25 1.06 0.87
0.59 0.58 0.56 0.57 0.60 0.72 0.93 1.00 0.97 0.97 1.08 1.15 1.10 1.15 1.18 1.22 1.22 1.20 1.23 1.25 1.20 1.09 1.03 1.06 0.89 0.82 0.77 0.80 0.84 0.94 1.17 1.27 0.99 0.99 0.93 0.91 0.78 0.87 1.07 1.20 1.14 1.10 0.99
0.76 0.73 0.74 0.72 0.66 0.67 0.80 0.97 1.01 0.99 1.05 1.06 1.10 1.18 1.26 1.32 1.28 1.23 1.09 1.12 1.13 1.08 1.10 1.11 0.98 0.84 0.80 0.88 0.96 1.10 1.24 1.00 1.03 0.99 1.10 1.02 0.89 1.01 1.25 1.32 1.21 1.13 1.08
1.06 0.96 0.92 0.80 0.73 0.75 0.74 0.84 0.96 1.01 1.07 1.16 1.25 1.33 1.51 1.66 1.56 1.57 1.36 1.44 1.40 1.33 1.35 1.40 1.28 1.08 0.97 0.96 1.20 1.47 1.20 0.93 1.12 1.19 1.22 1.15 1.10 1.32 1.57 1.55 1.46 1.34 1.21
1.36 1.05 1.00 0.89 0.86 0.83 0.74 0.87 1.09 1.05 1.17 1.35 1.52 1.61 1.91 2.10 2.07 1.68 1.88 2.03 1.94 1.94 1.85 1.85 1.91 1.59 1.23 1.18 1.73 2.06 1.21 1.00 1.03 1.10 1.12 1.13 1.43 1.72 1.93 1.77 1.59 1.52 1.41
1.35 1.34 1.28 1.13 1.13 1.11 1.16 1.07 1.22 1.38 1.58 1.59 1.56 1.79 2.20 2.07 1.93 1.83 1.99 2.37 2.48 2.51 2.42 2.41 2.40 2.00 1.87 2.04 2.21 1.99 1.43 1.35 1.32 1.36 1.38 1.56 1.90 2.19 2.23 1.96 1.79 1.72 1.65
1.66 1.89 1.96 1.68 1.71 1.61 1.44 1.35 1.34 1.43 1.62 1.79 2.01 2.12 2.28 2.40 2.36 2.25 2.31 2.49 2.60 2.74 3.13 2.97 2.81 2.55 2.45 2.30 2.23 1.98 1.74 1.77 1.78 1.91 2.10 1.90 2.02 2.32 2.46 2.27 2.10 2.01 1.95
2.38 2.62 2.79 2.38 2.27 2.14 2.14 2.08 1.80 1.89 2.01 2.16 2.35 2.52 2.56 2.74 2.81 2.81 2.71 2.65 2.45 2.51 2.85 3.08 2.91 2.89 2.79 2.60 2.35 2.16 2.02 1.95 1.88 2.01 2.15 2.30 2.30 2.34 2.57 2.74 2.58 2.33 2.25
2.90 3.07 3.23 3.11 3.11 2.95 2.70 2.73 2.70 2.35 2.44 2.46 2.52 2.54 2.67 2.87 3.21 3.35 3.22 3.07 2.68 2.57 2.63 2.88 2.93 3.13 3.06 2.88 2.30 2.18 2.13 2.12 2.15 2.09 2.25 2.76 2.79 2.43 2.49 2.81 2.96 2.90 2.76
3.76 3.68 3.74 3.70 3.96 3.85 3.42 3.10 2.83 2.65 2.63 2.82 2.86 2.85 2.90 3.11 3.43 3.39 3.21 2.86 2.55 2.53 2.73 2.72 2.71 2.95 2.78 2.65 2.53 2.55 2.49 2.38 2.27 2.23 2.34 2.81 2.81 2.46 2.34 2.44 2.73 2.98 3.10
4.57 4.51 4.31 3.89 4.28 4.31 4.00 3.78 3.44 3.18 3.24 3.22 2.94 3.00 2.93 3.08 2.99 3.04 2.74 2.43 2.46 2.61 2.73 2.89 2.77 2.83 2.86 2.93 2.99 2.94 2.77 2.61 2.19 2.04 1.97 2.11 2.39 2.10 2.25 2.50 2.57 2.67 3.10
4.99 5.21 5.19 5.09 4.84 4.59 4.40 4.26 4.07 3.91 3.61 3.24 3.10 3.14 2.83 2.52 2.32 2.51 2.44 2.37 2.36 2.56 2.60 2.41 2.77 3.00 3.01 3.03 2.79 2.83 2.46 2.32 2.08 1.83 1.81 1.77 1.93 2.06 2.08 2.16 2.30 2.37 2.84
4.93 5.49 5.69 5.76 5.42 4.91 4.47 4.14 4.06 3.84 3.58 3.31 3.10 3.06 2.64 2.39 2.15 2.40 2.35 2.31 2.32 2.50 2.60 2.69 2.98 3.10 2.79 2.72 2.46 2.36 2.08 1.70 1.66 1.65 1.54 1.59 1.72 1.70 1.86 2.04 2.29 2.13 2.61
4.50 5.20 5.34 5.65 5.15 4.51 4.01 3.65 3.54 3.35 3.06 2.96 2.84 2.77 2.62 2.37 2.27 2.50 2.34 2.41 2.25 2.32 2.34 2.42 2.67 2.80 2.42 2.51 2.98 2.57 1.96 1.58 1.57 1.47 1.47 1.55 1.60 1.67 1.91 2.22 2.42 2.48 2.53
3.90 4.61 4.66 4.39 4.19 3.76 3.41 3.26 3.09 3.04 2.71 2.54 2.43 2.51 2.29 2.13 2.16 2.19 2.33 2.19 2.14 2.29 2.28 2.32 2.54 2.52 2.22 2.42 2.94 3.05 2.50 2.09 1.77 1.41 1.39 1.44 1.59 1.81 1.92 1.98 2.39 2.70 2.69
3.55 3.64 3.28 3.14 3.24 3.21 3.04 2.95 2.81 2.81 2.62 2.38 2.23 2.24 2.06 1.86 1.90 1.94 1.94 2.01 2.12 1.92 2.07 2.26 2.40 2.48 2.37 2.30 2.57 3.02 2.80 2.44 2.09 1.69 1.54 1.63 1.84 2.00 2.06 2.20 2.30 2.52 2.74
2.70 2.63 2.61 2.59 2.66 2.87 2.86 2.65 2.48 2.21 2.14 2.11 2.01 2.03 2.02 1.78 1.71 1.74 1.74 1.90 1.98 1.92 2.17 1.89 2.01 2.29 2.51 2.32 2.34 2.39 2.46 2.68 2.65 2.22 1.84 1.71 1.82 1.95 2.03 2.04 2.11 2.39 2.65
2.04 2.12 2.12 2.42 2.54 2.56 2.54 2.50 2.55 2.29 2.13 2.09 2.22 2.41 2.33 2.00 1.68 1.53 1.63 1.80 1.91 1.96 2.05 1.98 2.09 2.04 2.12 2.18 2.27 2.27 2.41 2.65 2.50 2.40 2.21 1.98 1.87 1.70 1.75 1.87 2.06 2.31 2.48
1.36 1.51 1.65 1.96 2.19 2.25 2.20 2.21 2.28 2.32 2.30 2.12 2.08 2.15 2.09 1.94 1.74 1.56 1.59 1.81 1.88 1.94 1.97 2.01 2.01 1.91 2.00 2.12 2.16 2.20 2.39 2.44 2.37 2.46 2.31 2.13 1.99 1.71 1.67 1.75 1.97 2.12 2.21